BREEZE-M DEB, 39326

Orbit data source: Space-Track

BREEZE-M DEB, 39326 is space debris in HEO originally from a launch on Fri, 14 Mar 2008 UTC launched from the Tyuratam Missile And Space Complex (TTMTR). Debris objects in space refer to the collection of defunct objects orbiting the Earth. Examples of debris include non-operational satellites, rocket bodies, and fragments generated from explosions, collisions, or faulty payload assembly.

Loading next visibility...
Identifier
39326, 2008-011DD
Orbit
HEO
Country
Flag of CISCIS
Related business
Manufacturer
Unknown
Mission
Spacecraft
Bus & Motor
Unknown
Mass
Unknown
Launch date (UTC)
2008-03-14 (18 years ago)
Launch vehicle
Unknown
Launch site
Tyuratam Missile And Space Complex (TTMTR)
Object type
Payload
Rocket body
Debris
Shape & HBR
Unknown shape, 0.7 m
Radar Cross Section
Medium (>0.1 m² and <1 m²)

Expand to show TLE details & history
Last TLE update: 5 days ago

TLE from 5 days ago
0 BREEZE-M DEB
1 39326U 08011DD  26168.96009115  .00000015  00000-0  00000-0 0  9993
2 39326  48.5685 213.8941 5870933 121.2612 309.1623  2.89403058  1351
Epoch: 2026-06-17T23:02Z
TLE epoch observation values (Epoch: 2026-06-17T23:02:31.875Z)
Latitude
0.00004°
Longitude
-37.91009°
Altitude
13,214.634 km
Speed
4.64 km/s
True Right ascension
14h 15m 43s
True Declination
0° 00' 00"
Sunlit
Object was in daylight at epoch
Visualization orbit readout
Latitude
Unknown
Longitude
Unknown
Altitude
Unknown
Speed
Unknown
Apparent Right ascension
Unknown
Apparent Declination
Unknown
Sunlit
N/A
Visualization observer readout
Local Sidereal Time
03:29:34
Azimuth
Unknown
Elevation
Unknown
Doppler factor
Unknown
Orbital elements
Apogee altitude
26,634.653 km
Perigee altitude
2,210.647 km
Semi-major axis
20,800.787 km
Eccentricity
0.58709
Inclination
48.5685°
RAAN
213.8941°
Arg. of periapsis
121.2612°
True anomaly
238.79483°
Mean anomaly
309.1623°
Eccentric anomaly
275.69007°
Mean motion
0.72347 °/min
Orbital period
497.6 mins
BSTAR
0
Loading maneuver chart data...
Computing Atmospheric mass density...
Loading historical data...
Loading historical data...
Loading historical data...
Loading historical data...
Loading historical data...
Loading historical data...
Loading historical data...

Documentation

Showing up to 5 results
|